| time (UTC) | temp F | wind direction | speed knots | gust knots | rain 1hr in | rain 24hr in | rain mn in | humidity % | barometer mb |
| 20260904184258 | 81 | 340 | 0.9 | 1.7 | 0.00 | 0.00 | 0.00 | 83 | 1015.6 |
| 20260904183753 | 81 | 105 | 0.9 | 1.7 | 0.00 | 0.00 | 0.00 | 83 | 1015.8 |
| 20260904183248 | 81 | 200 | 0.9 | 7.0 | 0.00 | 0.00 | 0.00 | 84 | 1015.7 |
| 20260904182743 | 81 | 212 | 0.0 | 2.6 | 0.00 | 0.00 | 0.00 | 84 | 1015.7 |
| 20260904182238 | 81 | 179 | 1.7 | 5.2 | 0.00 | 0.00 | 0.00 | 84 | 1016.0 |
| 20260904181734 | 81 | 219 | 2.6 | 2.6 | 0.00 | 0.00 | 0.00 | 84 | 1015.9 |
| 20260904181234 | 81 | 276 | 3.5 | 6.1 | 0.00 | 0.00 | 0.00 | 83 | 1015.8 |
| 20260904180729 | 81 | 313 | 2.6 | 4.3 | 0.00 | 0.00 | 0.00 | 83 | 1015.7 |
| 20260904180224 | 81 | 31 | 2.6 | 2.6 | 0.00 | 0.00 | 0.00 | 83 | 1015.7 |
| 20260904175723 | 82 | 343 | 0.9 | 7.0 | 0.00 | 0.00 | 0.00 | 83 | 1015.7 |
| 20260904175222 | 83 | 351 | 2.6 | 4.3 | 0.00 | 0.00 | 0.00 | 81 | 1015.6 |
| 20260904174717 | 82 | 51 | 1.7 | 4.3 | 0.00 | 0.00 | 0.00 | 83 | 1015.5 |
| 20260904174213 | 82 | 312 | 1.7 | 4.3 | 0.00 | 0.00 | 0.00 | 83 | 1015.5 |
| 20260904173709 | 82 | 113 | 0.0 | 6.1 | 0.00 | 0.00 | 0.00 | 84 | 1015.2 |
| 20260904173203 | 82 | 192 | 3.5 | 6.1 | 0.00 | 0.00 | 0.00 | 83 | 1015.4 |
| 20260904172700 | 82 | 314 | 3.5 | 5.2 | 0.00 | 0.00 | 0.00 | 82 | 1015.2 |
| 20260904172159 | 82 | 190 | 2.6 | 5.2 | 0.00 | 0.00 | 0.00 | 82 | 1015.1 |
| 20260904171654 | 81 | 146 | 0.0 | 5.2 | 0.00 | 0.00 | 0.00 | 84 | 1015.2 |
| 20260904171149 | 82 | 342 | 6.1 | 7.8 | 0.00 | 0.00 | 0.00 | 83 | 1015.4 |
| 20260904170645 | 83 | 110 | 0.9 | 7.0 | 0.00 | 0.00 | 0.00 | 83 | 1015.1 |
| 20260904170141 | 83 | 250 | 0.9 | 5.2 | 0.00 | 0.00 | 0.00 | 82 | 1015.1 |
| 20260904165639 | 82 | 347 | 1.7 | 2.6 | 0.00 | 0.00 | 0.00 | 83 | 1015.4 |
| 20260904165134 | 82 | 327 | 2.6 | 2.6 | 0.00 | 0.00 | 0.00 | 83 | 1015.4 |
| 20260904164634 | 82 | 80 | 1.7 | 5.2 | 0.00 | 0.00 | 0.00 | 84 | 1015.2 |
| 20260904164129 | 84 | 73 | 0.9 | 1.7 | 0.00 | 0.00 | 0.00 | 82 | 1015.1 |
| 20260904163624 | 82 | 312 | 0.9 | 5.2 | 0.00 | 0.00 | 0.00 | 84 | 1015.0 |
| 20260904163119 | 82 | 207 | 2.6 | 4.3 | 0.00 | 0.00 | 0.00 | 84 | 1015.0 |
| 20260904162614 | 82 | 120 | 1.7 | 2.6 | 0.00 | 0.00 | 0.00 | 84 | 1015.0 |
| 20260904162109 | 82 | 337 | 0.9 | 4.3 | 0.00 | 0.00 | 0.00 | 84 | 1015.1 |
| 20260904161604 | 84 | 203 | 2.6 | 4.3 | 0.00 | 0.00 | 0.00 | 82 | 1015.0 |
| 20260904161059 | 84 | 236 | 2.6 | 5.2 | 0.00 | 0.00 | 0.00 | 82 | 1014.7 |
| 20260904160555 | 84 | 125 | 0.9 | 2.6 | 0.00 | 0.00 | 0.00 | 82 | 1014.7 |
| 20260904160050 | 84 | 121 | 0.0 | 1.7 | 0.00 | 0.00 | 0.00 | 81 | 1014.6 |
| 20260904155549 | 84 | 156 | 0.9 | 2.6 | 0.00 | 0.00 | 0.00 | 81 | 1014.7 |
| 20260904155044 | 84 | 105 | 0.0 | 4.3 | 0.00 | 0.00 | 0.00 | 80 | 1014.8 |
| 20260904154538 | 84 | 306 | 0.9 | 1.7 | 0.00 | 0.00 | 0.00 | 81 | 1014.5 |
| 20260904154033 | 83 | 134 | 0.9 | 5.2 | 0.00 | 0.00 | 0.00 | 82 | 1014.4 |
| 20260904153532 | 84 | 181 | 1.7 | 2.6 | 0.00 | 0.00 | 0.00 | 82 | 1014.5 |
| 20260904153029 | 83 | 170 | 3.5 | 4.3 | 0.00 | 0.00 | 0.00 | 82 | 1014.5 |
| 20260904152524 | 84 | 84 | 0.9 | 2.6 | 0.00 | 0.00 | 0.00 | 81 | 1014.6 |
| 20260904152020 | 84 | 101 | 0.0 | 0.9 | 0.00 | 0.00 | 0.00 | 81 | 1014.3 |
| 20260904151514 | 84 | 118 | 0.0 | 0.0 | 0.00 | 0.00 | 0.00 | 81 | 1014.4 |
| 20260904151014 | 83 | 89 | 0.0 | 1.7 | 0.00 | 0.00 | 0.00 | 83 | 1014.4 |
| 20260904150514 | 83 | 66 | 0.9 | 0.9 | 0.00 | 0.00 | 0.00 | 82 | 1013.9 |
| 20260904150009 | 83 | 95 | 0.0 | 1.7 | 0.00 | 0.00 | 0.00 | 83 | 1014.1 |
| 20260904145503 | 82 | 83 | 0.9 | 0.9 | 0.00 | 0.00 | 0.00 | 84 | 1013.8 |
| 20260904144958 | 82 | 100 | 0.9 | 1.7 | 0.00 | 0.00 | 0.00 | 85 | 1014.1 |
| 20260904144454 | 81 | 61 | 0.0 | 0.9 | 0.00 | 0.00 | 0.00 | 85 | 1014.1 |
| 20260904143950 | 80 | 83 | 0.0 | 0.9 | 0.00 | 0.00 | 0.00 | 87 | 1014.2 |
| 20260904143446 | 80 | 102 | 0.0 | 1.7 | 0.00 | 0.00 | 0.00 | 87 | 1014.1 |
| 20260904142943 | 80 | 105 | 0.0 | 0.9 | 0.00 | 0.00 | 0.00 | 88 | 1014.1 |
| 20260904142439 | 80 | 344 | 1.7 | 1.7 | 0.00 | 0.00 | 0.00 | 86 | 1014.1 |
| 20260904141938 | 80 | 91 | 0.0 | 1.7 | 0.00 | 0.00 | 0.00 | 87 | 1014.1 |
| 20260904141433 | 80 | 93 | 0.0 | 2.6 | 0.00 | 0.00 | 0.00 | 87 | 1014.0 |
| 20260904140931 | 79 | 86 | 0.0 | 0.0 | 0.00 | 0.00 | 0.00 | 88 | 1014.1 |
| 20260904140430 | 78 | 74 | 0.0 | 0.0 | 0.00 | 0.00 | 0.00 | 90 | 1014.2 |
| 20260904135929 | 78 | 14 | 0.0 | 0.9 | 0.00 | 0.00 | 0.00 | 90 | 1014.3 |
| 20260904135429 | 78 | 352 | 0.9 | 0.9 | 0.00 | 0.00 | 0.00 | 89 | 1014.2 |
| 20260904134925 | 79 | 20 | 1.7 | 1.7 | 0.00 | 0.00 | 0.00 | 88 | 1014.5 |
| 20260904134425 | 78 | 83 | 0.0 | 0.0 | 0.00 | 0.00 | 0.00 | 93 | 1014.1 |
| 20260904133920 | 76 | 92 | 0.0 | 0.9 | 0.00 | 0.00 | 0.00 | 95 | 1014.2 |
| 20260904133414 | 75 | 104 | 0.9 | 1.7 | 0.00 | 0.00 | 0.00 | 97 | 1014.3 |
| 20260904132910 | 75 | 95 | 0.0 | 0.9 | 0.00 | 0.00 | 0.00 | 99 | 1014.5 |
| 20260904132405 | 75 | 95 | 0.0 | 0.0 | 0.00 | 0.00 | 0.00 | 99 | 1014.2 |
| 20260904131905 | 74 | 72 | 0.0 | 0.0 | 0.00 | 0.00 | 0.00 | 99 | 1014.1 |
| 20260904131400 | 74 | 164 | 0.0 | 0.0 | 0.00 | 0.00 | 0.00 | 99 | 1014.1 |
| 20260904130855 | 73 | 89 | 0.0 | 0.0 | 0.00 | 0.00 | 0.00 | 99 | 1014.1 |
| 20260904130355 | 73 | 135 | 0.0 | 0.0 | 0.00 | 0.00 | 0.00 | 99 | 1013.9 |
| 20260904125850 | 72 | 103 | 0.0 | 0.0 | 0.00 | 0.00 | 0.00 | 99 | 1013.6 |
| 20260904125346 | 72 | 99 | 0.0 | 0.9 | 0.00 | 0.00 | 0.00 | 99 | 1014.0 |
| 20260904124844 | 72 | 113 | 0.0 | 0.0 | 0.00 | 0.00 | 0.00 | 99 | 1013.7 |
| 20260904124341 | 72 | 91 | 0.0 | 0.9 | 0.00 | 0.00 | 0.00 | 99 | 1013.6 |
| 20260904123837 | 72 | 104 | 0.0 | 0.9 | 0.00 | 0.00 | 0.00 | 99 | 1013.5 |
| 20260904123332 | 72 | 112 | 0.0 | 0.0 | 0.00 | 0.00 | 0.00 | 99 | 1013.6 |
| 20260904122827 | 72 | 61 | 0.0 | 0.9 | 0.00 | 0.00 | 0.00 | 99 | 1013.7 |
| 20260904122327 | 72 | 107 | 0.0 | 0.0 | 0.00 | 0.00 | 0.00 | 99 | 1013.6 |
| 20260904121822 | 72 | 108 | 0.0 | 0.0 | 0.00 | 0.00 | 0.00 | 99 | 1013.5 |
| 20260904121318 | 71 | 37 | 0.0 | 0.0 | 0.00 | 0.00 | 0.00 | 99 | 1013.6 |
| 20260904120814 | 71 | 103 | 0.0 | 0.0 | 0.00 | 0.00 | 0.00 | 99 | 1013.5 |
| 20260904120310 | 71 | 110 | 0.0 | 0.0 | 0.00 | 0.00 | 0.00 | 99 | 1013.3 |
| 20260904115804 | 72 | 99 | 0.0 | 0.0 | 0.00 | 0.00 | 0.00 | 99 | 1013.4 |
| 20260904115300 | 72 | 320 | 0.0 | 0.0 | 0.00 | 0.00 | 0.00 | 99 | 1013.4 |
| 20260904114754 | 72 | 101 | 0.0 | 1.7 | 0.00 | 0.00 | 0.00 | 99 | 1013.3 |
| 20260904114254 | 72 | 109 | 0.0 | 0.0 | 0.00 | 0.00 | 0.00 | 99 | 1013.1 |
| 20260904113750 | 72 | 334 | 0.9 | 0.9 | 0.00 | 0.00 | 0.00 | 99 | 1013.2 |
| 20260904113248 | 72 | 116 | 0.0 | 0.0 | 0.00 | 0.00 | 0.00 | 99 | 1013.1 |
| 20260904112743 | 72 | 347 | 0.9 | 0.9 | 0.00 | 0.00 | 0.00 | 99 | 1013.3 |
| 20260904112239 | 72 | 106 | 0.0 | 0.0 | 0.00 | 0.00 | 0.00 | 99 | 1012.9 |
| 20260904111735 | 72 | 77 | 0.0 | 0.9 | 0.00 | 0.00 | 0.00 | 99 | 1013.0 |
| 20260904111230 | 72 | 107 | 0.0 | 0.9 | 0.00 | 0.00 | 0.00 | 99 | 1012.9 |
| 20260904110726 | 72 | 99 | 0.0 | 0.0 | 0.00 | 0.00 | 0.00 | 99 | 1013.1 |
| 20260904110225 | 72 | 103 | 0.0 | 0.0 | 0.00 | 0.00 | 0.00 | 99 | 1013.0 |
| 20260904105720 | 72 | 107 | 0.0 | 0.0 | 0.00 | 0.00 | 0.00 | 99 | 1013.0 |
| 20260904105215 | 72 | 99 | 0.0 | 0.0 | 0.00 | 0.00 | 0.00 | 99 | 1013.0 |
| 20260904104710 | 72 | 100 | 0.0 | 0.0 | 0.00 | 0.00 | 0.00 | 99 | 1012.8 |
| 20260904104206 | 72 | 119 | 0.0 | 0.0 | 0.00 | 0.00 | 0.00 | 99 | 1013.0 |
| 20260904103703 | 72 | 107 | 0.0 | 0.0 | 0.00 | 0.00 | 0.00 | 99 | 1013.1 |
| 20260904103157 | 73 | 33 | 0.9 | 0.9 | 0.00 | 0.00 | 0.00 | 99 | 1013.1 |
| 20260904102653 | 73 | 120 | 0.0 | 0.9 | 0.00 | 0.00 | 0.00 | 99 | 1013.1 |
| 20260904102148 | 73 | 310 | 0.9 | 2.6 | 0.00 | 0.00 | 0.00 | 99 | 1013.3 |
| 20260904101645 | 73 | 75 | 0.0 | 0.0 | 0.00 | 0.00 | 0.00 | 99 | 1013.2 |
| 20260904101140 | 73 | 103 | 0.0 | 0.0 | 0.00 | 0.00 | 0.00 | 99 | 1013.2 |
| 20260904100636 | 73 | 310 | 0.0 | 1.7 | 0.00 | 0.00 | 0.00 | 99 | 1013.3 |
| 20260904100131 | 73 | 354 | 0.9 | 1.7 | 0.00 | 0.00 | 0.00 | 99 | 1013.0 |
| 20260904095626 | 72 | 98 | 0.0 | 0.0 | 0.00 | 0.00 | 0.00 | 99 | 1012.9 |
| 20260904095126 | 73 | 100 | 0.0 | 0.0 | 0.00 | 0.00 | 0.00 | 99 | 1013.0 |
| 20260904094620 | 73 | 93 | 0.0 | 0.0 | 0.00 | 0.00 | 0.00 | 99 | 1012.9 |
| 20260904094115 | 73 | 100 | 0.0 | 0.0 | 0.00 | 0.00 | 0.00 | 99 | 1012.7 |
| 20260904093612 | 73 | 94 | 0.0 | 0.0 | 0.00 | 0.00 | 0.00 | 99 | 1013.0 |
| 20260904093107 | 73 | 99 | 0.0 | 0.0 | 0.00 | 0.00 | 0.00 | 99 | 1013.0 |
| 20260904092603 | 73 | 92 | 0.0 | 0.0 | 0.00 | 0.00 | 0.00 | 99 | 1013.0 |
| 20260904092059 | 73 | 103 | 0.0 | 0.0 | 0.00 | 0.00 | 0.00 | 99 | 1012.7 |
| 20260904091555 | 73 | 103 | 0.0 | 0.0 | 0.00 | 0.00 | 0.00 | 99 | 1012.7 |
| 20260904091054 | 73 | 95 | 0.0 | 0.0 | 0.00 | 0.00 | 0.00 | 99 | 1012.6 |
| 20260904090550 | 73 | 95 | 0.0 | 0.0 | 0.00 | 0.00 | 0.00 | 99 | 1012.6 |
| 20260904090045 | 73 | 97 | 0.0 | 0.0 | 0.00 | 0.00 | 0.00 | 99 | 1012.7 |
| 20260904085540 | 73 | 95 | 0.0 | 0.0 | 0.00 | 0.00 | 0.00 | 99 | 1012.6 |
| 20260904085039 | 73 | 95 | 0.0 | 0.0 | 0.00 | 0.00 | 0.00 | 99 | 1012.6 |
| 20260904084536 | 73 | 67 | 0.0 | 0.0 | 0.00 | 0.00 | 0.00 | 99 | 1012.6 |
| 20260904084032 | 73 | 101 | 0.0 | 0.0 | 0.00 | 0.00 | 0.00 | 98 | 1012.5 |
| 20260904083527 | 73 | 91 | 0.0 | 0.0 | 0.00 | 0.00 | 0.00 | 98 | 1012.3 |
| 20260904083023 | 73 | 93 | 0.0 | 0.0 | 0.00 | 0.00 | 0.00 | 98 | 1012.5 |
| 20260904082518 | 73 | 91 | 0.0 | 0.0 | 0.00 | 0.00 | 0.00 | 98 | 1012.6 |
| 20260904082013 | 74 | 77 | 0.0 | 0.0 | 0.00 | 0.00 | 0.00 | 98 | 1012.5 |
| 20260904081509 | 74 | 83 | 0.0 | 0.9 | 0.00 | 0.00 | 0.00 | 98 | 1012.5 |
| 20260904081004 | 74 | 95 | 0.0 | 0.0 | 0.00 | 0.00 | 0.00 | 98 | 1012.5 |
| 20260904080459 | 74 | 95 | 0.0 | 0.0 | 0.00 | 0.00 | 0.00 | 98 | 1012.5 |
| 20260904075955 | 74 | 95 | 0.0 | 0.0 | 0.00 | 0.00 | 0.00 | 97 | 1012.5 |
| 20260904075451 | 74 | 100 | 0.0 | 0.0 | 0.00 | 0.00 | 0.00 | 97 | 1012.4 |
| 20260904074950 | 74 | 100 | 0.0 | 0.0 | 0.00 | 0.00 | 0.00 | 97 | 1012.6 |
| 20260904074445 | 74 | 93 | 0.0 | 0.0 | 0.00 | 0.00 | 0.00 | 97 | 1012.4 |
| 20260904073940 | 74 | 97 | 0.0 | 0.0 | 0.00 | 0.00 | 0.00 | 97 | 1012.4 |
| 20260904073436 | 74 | 87 | 0.0 | 0.0 | 0.00 | 0.00 | 0.00 | 96 | 1012.5 |
| 20260904072931 | 74 | 81 | 0.0 | 0.0 | 0.00 | 0.00 | 0.00 | 96 | 1012.6 |
| 20260904072427 | 74 | 96 | 0.0 | 0.0 | 0.00 | 0.00 | 0.00 | 96 | 1012.7 |
| 20260904071921 | 74 | 92 | 0.0 | 0.0 | 0.00 | 0.00 | 0.00 | 96 | 1012.5 |
| 20260904071417 | 75 | 100 | 0.0 | 0.0 | 0.00 | 0.00 | 0.00 | 96 | 1012.7 |
| 20260904070912 | 75 | 102 | 0.0 | 1.7 | 0.00 | 0.00 | 0.00 | 96 | 1012.7 |
| 20260904070411 | 75 | 104 | 0.0 | 0.0 | 0.00 | 0.00 | 0.00 | 96 | 1012.6 |
| 20260904065910 | 75 | 101 | 0.0 | 0.9 | 0.00 | 0.00 | 0.00 | 95 | 1012.6 |
| 20260904065407 | 75 | 100 | 0.0 | 0.0 | 0.00 | 0.00 | 0.00 | 95 | 1012.8 |
| 20260904064906 | 75 | 97 | 0.0 | 0.9 | 0.00 | 0.00 | 0.00 | 95 | 1012.6 |
| 20260904064403 | 75 | 89 | 0.0 | 2.6 | 0.00 | 0.00 | 0.00 | 95 | 1012.8 |
| 20260904063858 | 75 | 98 | 0.0 | 0.9 | 0.00 | 0.00 | 0.00 | 95 | 1012.8 |
| 20260904063355 | 75 | 101 | 0.9 | 1.7 | 0.00 | 0.00 | 0.00 | 95 | 1012.8 |
| 20260904062849 | 75 | 115 | 0.0 | 0.0 | 0.00 | 0.00 | 0.00 | 95 | 1012.7 |
| 20260904062345 | 75 | 122 | 0.0 | 0.9 | 0.00 | 0.00 | 0.00 | 95 | 1012.8 |
| 20260904061841 | 75 | 109 | 0.0 | 1.7 | 0.00 | 0.00 | 0.00 | 94 | 1012.6 |
| 20260904061337 | 75 | 106 | 0.0 | 0.9 | 0.00 | 0.00 | 0.00 | 94 | 1012.8 |
| 20260904060833 | 75 | 114 | 0.0 | 0.9 | 0.00 | 0.00 | 0.00 | 94 | 1012.7 |
| 20260904060329 | 75 | 104 | 0.0 | 0.0 | 0.00 | 0.00 | 0.00 | 94 | 1012.9 |
| 20260904055824 | 76 | 108 | 0.0 | 0.0 | 0.00 | 0.00 | 0.00 | 94 | 1012.8 |
| 20260904055319 | 76 | 106 | 0.0 | 0.9 | 0.00 | 0.00 | 0.00 | 93 | 1012.8 |
| 20260904054815 | 76 | 114 | 0.0 | 0.9 | 0.00 | 0.00 | 0.00 | 93 | 1012.7 |
| 20260904054310 | 76 | 104 | 0.0 | 0.0 | 0.00 | 0.00 | 0.00 | 93 | 1012.8 |
| 20260904053800 | 76 | 107 | 0.9 | 1.7 | 0.00 | 0.00 | 0.00 | 93 | 1012.7 |
| 20260904053300 | 76 | 99 | 0.0 | 0.9 | 0.00 | 0.00 | 0.00 | 92 | 1012.9 |
| 20260904052756 | 76 | 120 | 0.0 | 2.6 | 0.00 | 0.00 | 0.00 | 92 | 1012.9 |
| 20260904052252 | 76 | 111 | 0.9 | 1.7 | 0.00 | 0.00 | 0.00 | 92 | 1012.8 |
| 20260904051748 | 76 | 99 | 0.9 | 1.7 | 0.00 | 0.00 | 0.00 | 92 | 1012.5 |
| 20260904051243 | 76 | 161 | 0.9 | 4.3 | 0.00 | 0.00 | 0.00 | 92 | 1012.6 |
| 20260904050738 | 76 | 125 | 0.9 | 2.6 | 0.00 | 0.00 | 0.00 | 92 | 1012.5 |
| 20260904050235 | 77 | 88 | 0.0 | 5.2 | 0.00 | 0.00 | 0.00 | 91 | 1012.5 |
| 20260904045735 | 77 | 116 | 0.9 | 4.3 | 0.00 | 0.04 | 0.04 | 91 | 1012.6 |
| 20260904045230 | 77 | 95 | 2.6 | 2.6 | 0.00 | 0.04 | 0.04 | 91 | 1012.3 |
| 20260904044724 | 77 | 79 | 1.7 | 4.3 | 0.00 | 0.04 | 0.04 | 91 | 1012.8 |
| 20260904044221 | 77 | 127 | 0.0 | 1.7 | 0.00 | 0.04 | 0.04 | 91 | 1012.5 |
| 20260904043717 | 77 | 70 | 0.9 | 4.3 | 0.00 | 0.04 | 0.04 | 91 | 1012.5 |
| 20260904043213 | 77 | 152 | 1.7 | 5.2 | 0.00 | 0.04 | 0.04 | 91 | 1012.6 |
| 20260904042708 | 77 | 112 | 0.0 | 4.3 | 0.00 | 0.04 | 0.04 | 91 | 1012.6 |
| 20260904042205 | 77 | 90 | 0.0 | 2.6 | 0.00 | 0.04 | 0.04 | 90 | 1012.5 |
| 20260904041658 | 77 | 106 | 0.0 | 5.2 | 0.00 | 0.04 | 0.04 | 90 | 1012.4 |
| 20260904041155 | 77 | 86 | 0.9 | 0.9 | 0.00 | 0.04 | 0.04 | 90 | 1012.7 |
| 20260904040651 | 77 | 109 | 0.0 | 2.6 | 0.00 | 0.04 | 0.04 | 90 | 1012.6 |
| 20260904040146 | 77 | 93 | 0.0 | 4.3 | 0.00 | 0.04 | 0.04 | 90 | 1012.5 |
| 20260904035642 | 77 | 82 | 0.9 | 1.7 | 0.00 | 0.04 | 0.04 | 90 | 1012.4 |
| 20260904035137 | 77 | 165 | 0.9 | 2.6 | 0.00 | 0.04 | 0.04 | 90 | 1012.6 |
| 20260904034636 | 77 | 124 | 0.9 | 2.6 | 0.00 | 0.04 | 0.04 | 90 | 1012.5 |
| 20260904034132 | 77 | 121 | 0.9 | 1.7 | 0.00 | 0.04 | 0.04 | 90 | 1012.7 |
| 20260904033627 | 77 | 102 | 0.0 | 2.6 | 0.00 | 0.04 | 0.04 | 90 | 1012.6 |
| 20260904033125 | 77 | 116 | 1.7 | 2.6 | 0.00 | 0.04 | 0.04 | 89 | 1012.5 |
| 20260904032620 | 77 | 99 | 1.7 | 2.6 | 0.00 | 0.04 | 0.04 | 89 | 1012.3 |
| 20260904032119 | 77 | 99 | 0.0 | 1.7 | 0.00 | 0.04 | 0.04 | 89 | 1012.7 |
| 20260904031618 | 77 | 117 | 0.0 | 1.7 | 0.00 | 0.04 | 0.04 | 89 | 1012.6 |
| 20260904031114 | 77 | 116 | 0.0 | 5.2 | 0.00 | 0.04 | 0.04 | 89 | 1012.7 |
| 20260904030610 | 77 | 125 | 0.9 | 2.6 | 0.00 | 0.04 | 0.04 | 88 | 1012.8 |
| 20260904030105 | 77 | 53 | 0.9 | 1.7 | 0.00 | 0.04 | 0.04 | 88 | 1012.8 |
| 20260904025601 | 77 | 113 | 0.0 | 2.6 | 0.00 | 0.04 | 0.04 | 87 | 1012.9 |
| 20260904025056 | 77 | 45 | 0.0 | 0.9 | 0.00 | 0.04 | 0.04 | 87 | 1013.0 |
| 20260904024551 | 77 | 265 | 0.0 | 6.1 | 0.00 | 0.04 | 0.04 | 87 | 1012.7 |
| 20260904024047 | 78 | 104 | 0.0 | 1.7 | 0.00 | 0.04 | 0.04 | 86 | 1012.8 |
| 20260904023543 | 78 | 87 | 0.9 | 1.7 | 0.00 | 0.04 | 0.04 | 86 | 1013.0 |
| 20260904023039 | 78 | 35 | 1.7 | 1.7 | 0.00 | 0.04 | 0.04 | 86 | 1012.7 |
| 20260904022539 | 78 | 97 | 0.0 | 1.7 | 0.00 | 0.04 | 0.04 | 85 | 1012.8 |
| 20260904022036 | 78 | 72 | 0.9 | 0.9 | 0.00 | 0.04 | 0.04 | 85 | 1012.6 |
| 20260904021531 | 78 | 108 | 0.9 | 2.6 | 0.00 | 0.04 | 0.04 | 84 | 1012.9 |
| 20260904021026 | 78 | 85 | 0.0 | 2.6 | 0.00 | 0.04 | 0.04 | 84 | 1012.8 |
| 20260904020526 | 79 | 103 | 0.0 | 0.9 | 0.00 | 0.04 | 0.04 | 83 | 1012.5 |
| 20260904020021 | 79 | 101 | 0.0 | 0.9 | 0.00 | 0.04 | 0.04 | 83 | 1012.5 |
| 20260904015515 | 79 | 84 | 1.7 | 1.7 | 0.00 | 0.04 | 0.04 | 82 | 1012.5 |
| 20260904015014 | 79 | 88 | 0.0 | 1.7 | 0.00 | 0.04 | 0.04 | 82 | 1012.8 |
| 20260904014509 | 80 | 80 | 0.0 | 1.7 | 0.00 | 0.04 | 0.04 | 81 | 1012.7 |
| 20260904014004 | 80 | 100 | 0.0 | 0.9 | 0.00 | 0.04 | 0.04 | 81 | 1012.6 |
| 20260904013501 | 80 | 92 | 0.0 | 1.7 | 0.00 | 0.04 | 0.04 | 81 | 1012.4 |
| 20260904012957 | 80 | 110 | 0.0 | 5.2 | 0.00 | 0.04 | 0.04 | 80 | 1012.6 |
| 20260904012456 | 80 | 91 | 0.9 | 2.6 | 0.00 | 0.04 | 0.04 | 80 | 1012.3 |
| 20260904011950 | 80 | 114 | 0.0 | 2.6 | 0.00 | 0.04 | 0.04 | 79 | 1012.3 |
| 20260904011445 | 80 | 101 | 0.9 | 2.6 | 0.00 | 0.04 | 0.04 | 79 | 1012.3 |
| 20260904010941 | 80 | 89 | 0.0 | 4.3 | 0.00 | 0.04 | 0.04 | 79 | 1012.2 |
| 20260904010437 | 80 | 179 | 1.7 | 1.7 | 0.00 | 0.04 | 0.04 | 78 | 1012.0 |
| 20260904005931 | 80 | 118 | 0.0 | 4.3 | 0.00 | 0.04 | 0.04 | 78 | 1012.0 |
| 20260904005422 | 81 | 112 | 0.0 | 2.6 | 0.00 | 0.04 | 0.04 | 77 | 1012.0 |
| 20260904004921 | 81 | 168 | 1.7 | 2.6 | 0.00 | 0.04 | 0.04 | 77 | 1012.0 |
| 20260904004419 | 81 | 129 | 3.5 | 5.2 | 0.00 | 0.04 | 0.04 | 77 | 1012.0 |
| 20260904003919 | 81 | 111 | 0.0 | 5.2 | 0.00 | 0.04 | 0.04 | 76 | 1012.2 |
| 20260904003414 | 82 | 199 | 0.9 | 6.1 | 0.00 | 0.04 | 0.04 | 75 | 1012.0 |
| 20260904002909 | 82 | 154 | 0.0 | 6.1 | 0.00 | 0.04 | 0.04 | 75 | 1012.2 |
| 20260904002406 | 82 | 110 | 0.0 | 7.0 | 0.00 | 0.04 | 0.04 | 74 | 1012.0 |
| 20260904001904 | 82 | 120 | 0.0 | 0.9 | 0.00 | 0.04 | 0.04 | 74 | 1012.2 |
| 20260904001401 | 83 | 142 | 3.5 | 5.2 | 0.00 | 0.04 | 0.04 | 73 | 1012.1 |
| 20260904000855 | 83 | 123 | 0.9 | 7.0 | 0.00 | 0.04 | 0.04 | 73 | 1012.2 |
| 20260904000355 | 83 | 106 | 2.6 | 6.1 | 0.00 | 0.04 | 0.04 | 73 | 1012.2 |
| 20260903235855 | 83 | 99 | 0.9 | 5.2 | 0.00 | 0.04 | 0.04 | 73 | 1012.2 |
| 20260903235351 | 83 | 152 | 3.5 | 6.1 | 0.00 | 0.04 | 0.04 | 72 | 1012.2 |
| 20260903234850 | 83 | 136 | 0.0 | 7.0 | 0.00 | 0.04 | 0.04 | 72 | 1011.8 |
| 20260903234346 | 83 | 75 | 2.6 | 6.1 | 0.00 | 0.04 | 0.04 | 71 | 1012.2 |
| 20260903233842 | 84 | 123 | 1.7 | 5.2 | 0.00 | 0.04 | 0.04 | 71 | 1011.8 |
| 20260903233338 | 83 | 146 | 1.7 | 1.7 | 0.00 | 0.04 | 0.04 | 71 | 1011.7 |
| 20260903232837 | 84 | 124 | 0.9 | 1.7 | 0.00 | 0.04 | 0.04 | 72 | 1011.6 |
| 20260903232333 | 84 | 91 | 0.9 | 1.7 | 0.00 | 0.04 | 0.04 | 72 | 1011.7 |
| 20260903231832 | 84 | 108 | 0.9 | 1.7 | 0.00 | 0.04 | 0.04 | 72 | 1011.5 |
| 20260903231327 | 84 | 107 | 0.9 | 1.7 | 0.00 | 0.04 | 0.04 | 71 | 1011.4 |
| 20260903230823 | 84 | 115 | 2.6 | 4.3 | 0.00 | 0.04 | 0.04 | 71 | 1011.3 |
| 20260903230318 | 84 | 92 | 2.6 | 4.3 | 0.00 | 0.04 | 0.04 | 71 | 1011.3 |
| 20260903225814 | 84 | 72 | 5.2 | 8.7 | 0.00 | 0.04 | 0.04 | 71 | 1011.4 |
| 20260903225310 | 84 | 57 | 1.7 | 6.1 | 0.00 | 0.04 | 0.04 | 70 | 1011.5 |
| 20260903224806 | 84 | 97 | 3.5 | 5.2 | 0.00 | 0.04 | 0.04 | 70 | 1011.3 |
| 20260903224302 | 84 | 72 | 0.0 | 8.7 | 0.00 | 0.04 | 0.04 | 70 | 1011.4 |
| 20260903223757 | 84 | 154 | 3.5 | 7.0 | 0.00 | 0.04 | 0.04 | 69 | 1011.5 |
| 20260903223256 | 84 | 33 | 1.7 | 11.3 | 0.00 | 0.04 | 0.04 | 69 | 1011.6 |
| 20260903222751 | 84 | 135 | 0.0 | 1.7 | 0.00 | 0.04 | 0.04 | 69 | 1011.5 |
| 20260903222250 | 84 | 83 | 0.9 | 5.2 | 0.00 | 0.04 | 0.04 | 69 | 1011.3 |
| 20260903221745 | 84 | 146 | 1.7 | 2.6 | 0.00 | 0.04 | 0.04 | 69 | 1011.6 |
| 20260903221243 | 84 | 182 | 1.7 | 9.6 | 0.00 | 0.04 | 0.04 | 68 | 1011.2 |
| 20260903220742 | 84 | 222 | 0.9 | 2.6 | 0.00 | 0.04 | 0.04 | 69 | 1011.4 |
| 20260903220237 | 84 | 190 | 7.0 | 12.2 | 0.00 | 0.04 | 0.04 | 69 | 1011.4 |
| 20260903215730 | 84 | 120 | 2.6 | 4.3 | 0.00 | 0.04 | 0.04 | 69 | 1011.6 |
| 20260903215226 | 83 | 182 | 2.6 | 6.1 | 0.00 | 0.04 | 0.04 | 71 | 1011.6 |
| 20260903214724 | 84 | 119 | 0.9 | 5.2 | 0.00 | 0.04 | 0.04 | 72 | 1011.6 |
| 20260903214221 | 84 | 98 | 1.7 | 4.3 | 0.00 | 0.04 | 0.04 | 72 | 1011.7 |
| 20260903213714 | 83 | 117 | 0.9 | 1.7 | 0.00 | 0.04 | 0.04 | 72 | 1011.7 |
| 20260903213211 | 83 | 80 | 2.6 | 7.8 | 0.00 | 0.04 | 0.04 | 72 | 1011.8 |
| 20260903212706 | 83 | 149 | 2.6 | 7.0 | 0.00 | 0.04 | 0.04 | 72 | 1011.7 |
| 20260903212202 | 83 | 161 | 0.9 | 11.3 | 0.00 | 0.04 | 0.04 | 72 | 1011.3 |
| 20260903211655 | 83 | 97 | 0.0 | 11.3 | 0.00 | 0.04 | 0.04 | 72 | 1012.0 |
| 20260903211153 | 83 | 113 | 3.5 | 5.2 | 0.00 | 0.04 | 0.04 | 70 | 1012.4 |
| 20260903210648 | 83 | 123 | 0.9 | 5.2 | 0.00 | 0.04 | 0.04 | 72 | 1012.6 |
| 20260903210143 | 83 | 126 | 0.9 | 6.1 | 0.00 | 0.04 | 0.04 | 73 | 1012.6 |
| 20260903205643 | 84 | 101 | 0.9 | 7.0 | 0.00 | 0.04 | 0.04 | 72 | 1012.6 |
| 20260903205136 | 84 | 109 | 2.6 | 4.3 | 0.00 | 0.04 | 0.04 | 71 | 1012.4 |
| 20260903204632 | 85 | 103 | 0.9 | 2.6 | 0.00 | 0.04 | 0.04 | 70 | 1012.1 |
| 20260903204128 | 85 | 144 | 0.9 | 2.6 | 0.00 | 0.04 | 0.04 | 69 | 1012.5 |
| 20260903203623 | 85 | 156 | 0.9 | 5.2 | 0.00 | 0.04 | 0.04 | 71 | 1012.4 |
| 20260903203118 | 84 | 129 | 3.5 | 7.0 | 0.00 | 0.04 | 0.04 | 72 | 1012.2 |
| 20260903202613 | 84 | 199 | 0.9 | 7.8 | 0.00 | 0.04 | 0.04 | 73 | 1012.3 |
| 20260903202109 | 84 | 102 | 0.9 | 7.0 | 0.00 | 0.04 | 0.04 | 73 | 1012.4 |
| 20260903201603 | 84 | 158 | 3.5 | 5.2 | 0.00 | 0.04 | 0.04 | 73 | 1012.6 |
| 20260903201102 | 84 | 151 | 2.6 | 9.6 | 0.00 | 0.04 | 0.04 | 73 | 1012.2 |
| 20260903200552 | 84 | 81 | 3.5 | 6.1 | 0.00 | 0.04 | 0.04 | 73 | 1012.3 |
| 20260903200047 | 84 | 153 | 1.7 | 4.3 | 0.00 | 0.04 | 0.04 | 73 | 1012.5 |
| 20260903195543 | 83 | 97 | 2.6 | 4.3 | 0.00 | 0.04 | 0.04 | 75 | 1012.5 |
| 20260903195038 | 82 | 180 | 4.3 | 6.1 | 0.00 | 0.04 | 0.04 | 76 | 1012.5 |
| 20260903194533 | 81 | 192 | 3.5 | 4.3 | 0.00 | 0.04 | 0.04 | 79 | 1012.7 |
| 20260903194028 | 79 | 100 | 2.6 | 7.0 | 0.00 | 0.04 | 0.04 | 82 | 1012.8 |
| 20260903193525 | 78 | 111 | 1.7 | 5.2 | 0.00 | 0.04 | 0.04 | 84 | 1012.6 |
| 20260903193019 | 77 | 85 | 0.0 | 1.7 | 0.00 | 0.04 | 0.04 | 86 | 1012.8 |
| 20260903192517 | 76 | 121 | 2.6 | 4.3 | 0.00 | 0.04 | 0.04 | 88 | 1012.8 |
| 20260903192016 | 76 | 116 | 0.0 | 1.7 | 0.00 | 0.04 | 0.04 | 89 | 1013.2 |
| 20260903191513 | 76 | 61 | 0.0 | 0.9 | 0.07 | 0.04 | 0.04 | 89 | 1013.5 |
| 20260903191007 | 76 | 152 | 0.0 | 2.6 | 0.19 | 0.04 | 0.04 | 87 | 1013.7 |
| 20260903190507 | 77 | 149 | 0.0 | 0.9 | 0.12 | 0.03 | 0.03 | 87 | 1013.5 |
| 20260903190001 | 77 | 131 | 0.0 | 2.6 | 0.00 | 0.01 | 0.01 | 86 | 1013.3 |
| 20260903185456 | 77 | 15 | 2.6 | 4.3 | 0.00 | 0.01 | 0.01 | 88 | 1013.1 |
| 20260903184950 | 77 | 156 | 0.0 | 1.7 | 0.00 | 0.01 | 0.01 | 88 | 1013.2 |
| 20260903184447 | 77 | 139 | 0.0 | 0.9 | 0.05 | 0.01 | 0.01 | 88 | 1013.3 |